Weather observations for the past three days for
Denison
Imperial (Metric)
Date Time (cdt) Wind (mph) Vis. (mi.) Weather Sky Cond. Temperature (ºF) Relative Humidity Wind Chill (°F) Heat Index (°F) Pressure Precipitation (in)
Air Dwpt 6 hour altimeter (in) sea level (mb) 1 hr 3 hr 6 hr
Max. Min.
04 12:15 SW 10 10.00 Fair CLR 87.8 73.4 62% 96 29.9 0.0
04 11:55 SW 9 10.00 Fair CLR 87.8 73.4 62% 96 29.9 0.0
04 11:35 SW 12 G 17 10.00 Fair CLR 86 75.2 70% 95 29.9 0.0
04 11:15 SW 9 G 16 10.00 Fair CLR 86 73.4 66% 93 29.9 0.0
04 10:55 SW 10 G 17 10.00 Fair CLR 84.2 73.4 70% 91 29.89 0.0
04 10:35 SW 12 10.00 Fair CLR 82.4 73.4 74% 88 29.89 0.0
04 10:15 SW 14 10.00 Fair CLR 84.2 73.4 70% 91 29.89 0.0
04 09:55 SW 9 10.00 Fair CLR 82.4 73.4 74% 88 29.89 0.0
04 09:35 S 13 10.00 Fair CLR 80.6 73.4 79% 85 29.89 0.0
04 09:15 S 9 10.00 Fair CLR 80.6 73.4 79% 85 29.89 0.0
04 08:55 S 8 10.00 Fair CLR 78.8 71.6 79% 82 29.89 0.0
04 08:35 S 8 10.00 Fair CLR 78.8 71.6 79% 82 29.89 0.0
04 08:15 S 8 10.00 Fair CLR 77 71.6 83% 78 29.89 0.0
04 07:55 S 5 10.00 Fair CLR 75.2 71.6 89% 75 29.89 0.0
04 07:35 S 5 10.00 Fair CLR 73.4 69.8 89% 29.88 0.0
04 07:15 S 6 10.00 Fair CLR 73.4 69.8 89% 29.88 0.0
04 06:55 S 6 10.00 Fair CLR 73.4 69.8 89% 29.87 0.0
04 06:35 Calm 10.00 Fair CLR 73.4 69.8 89% 29.87 0.0
04 06:15 S 7 10.00 Fair CLR 73.4 69.8 89% 29.87 0.0
04 05:55 S 5 10.00 Fair CLR 73.4 69.8 89% 29.87 0.0
04 05:35 S 8 10.00 Fair CLR 75.2 69.8 83% 75 29.87 0.0
04 05:15 S 9 10.00 Fair CLR 75.2 69.8 83% 75 29.86 0.0
04 04:55 S 9 10.00 Fair CLR 75.2 69.8 83% 75 29.86 0.0
04 04:35 S 8 10.00 Fair CLR 75.2 69.8 83% 75 29.86 0.0
04 04:15 S 10 10.00 Fair CLR 75.2 69.8 83% 75 29.86 0.0
04 03:55 S 12 10.00 Fair CLR 77 69.8 79% 79 29.86 0.0
04 03:35 S 10 10.00 Fair CLR 75.2 69.8 83% 75 29.85 0.0
04 03:15 S 9 10.00 Fair CLR 77 69.8 79% 79 29.85 0.0
04 02:55 S 10 10.00 Fair CLR 77 69.8 79% 79 29.85 0.0
04 02:35 S 10 10.00 Fair CLR 78.8 69.8 74% 81 29.85 0.0
04 02:15 SW 10 10.00 Fair CLR 78.8 69.8 74% 81 29.85 0.0
04 01:55 S 8 10.00 Fair CLR 78.8 69.8 74% 81 29.85 0.0
04 01:35 SW 7 10.00 Fair CLR 77 69.8 79% 79 29.85 0.0
04 01:15 SW 9 10.00 Fair CLR 78.8 69.8 74% 81 29.85 0.0
04 00:55 S 9 10.00 Fair CLR 78.8 69.8 74% 81 29.85 0.0
04 00:35 S 10 10.00 Fair CLR 78.8 69.8 74% 81 29.85 0.0
04 00:15 S 10 G 17 10.00 Fair CLR 80.6 69.8 70% 84 29.84 0.0
03 23:55 S 9 G 16 10.00 Fair CLR 78.8 69.8 74% 81 29.84 0.0
03 23:35 S 10 10.00 Fair CLR 78.8 71.6 79% 82 29.84 0.0
03 23:15 S 10 10.00 Fair CLR 78.8 71.6 79% 82 29.84 0.0
03 22:55 S 10 10.00 Fair CLR 80.6 71.6 74% 85 29.85 0.0
03 22:35 S 9 10.00 Fair CLR 80.6 71.6 74% 85 29.85 0.0
03 22:15 S 10 10.00 Fair CLR 80.6 71.6 74% 85 29.85 0.0
03 21:55 S 13 10.00 Fair CLR 82.4 71.6 70% 87 29.84 0.0
03 21:35 S 13 G 20 10.00 Fair CLR 82.4 71.6 70% 87 29.84 0.0
03 21:15 S 13 10.00 Fair CLR 82.4 71.6 70% 87 29.84 0.0
03 20:55 S 13 G 20 10.00 Fair CLR 84.2 71.6 66% 90 29.83 0.0
03 20:35 S 12 10.00 Fair CLR 82.4 73.4 74% 88 29.83 0.0
03 20:15 S 9 10.00 Fair CLR 82.4 73.4 74% 88 29.82 0.0
03 19:55 SE 9 10.00 Fair CLR 84.2 75.2 74% 92 29.82 0.0
03 19:35 S 9 10.00 Fair CLR 84.2 75.2 74% 92 29.82 0.0
03 19:15 S 10 9.00 Fair CLR 86 75.2 70% 95 29.82 0.0
03 18:55 S 9 10.00 Fair CLR 87.8 73.4 62% 96 29.81 0.0
03 18:35 S 12 10.00 Fair CLR 87.8 73.4 62% 96 29.81 0.0
03 18:15 S 10 10.00 Fair CLR 89.6 73.4 59% 98 29.81 0.0
03 17:55 S 10 G 16 10.00 Fair CLR 89.6 75.2 63% 100 29.81 0.0
03 17:35 S 13 G 22 10.00 Fair CLR 89.6 73.4 59% 98 29.81 0.0
03 17:15 S 13 G 20 10.00 Fair CLR 91.4 73.4 56% 100 29.81 0.0
03 16:55 S 10 G 18 10.00 Fair CLR 91.4 73.4 56% 100 29.81 0.0
03 16:35 S 13 G 20 10.00 Fair CLR 91.4 73.4 56% 100 29.82 0.0
03 16:15 S 13 G 18 10.00 Fair CLR 89.6 75.2 63% 100 29.82 0.0
03 15:55 S 13 G 18 10.00 Fair CLR 89.6 75.2 63% 100 29.82 0.0
03 15:35 S 12 G 22 10.00 Fair CLR 89.6 73.4 59% 98 29.83 0.0
03 15:15 S 20 10.00 Fair CLR 89.6 73.4 59% 98 29.82 0.0
03 14:55 S 16 G 28 10.00 Fair CLR 89.6 73.4 59% 98 29.82 0.0
03 14:35 S 17 G 29 10.00 Fair CLR 87.8 73.4 62% 96 29.82 0.0
03 14:15 S 17 G 25 10.00 Fair CLR 87.8 73.4 62% 96 29.82 0.0
03 13:55 S 18 G 29 10.00 Fair CLR 87.8 73.4 62% 96 29.83 0.0
03 13:35 S 15 G 25 10.00 Fair CLR 86 73.4 66% 93 29.83 0.0
03 13:15 S 17 G 23 10.00 Fair CLR 82.4 73.4 74% 88 29.84 0.0
03 12:55 S 16 10.00 Fair CLR 82.4 73.4 74% 88 29.85 0.0
03 12:35 S 15 G 22 10.00 Fair CLR 82.4 73.4 74% 88 29.86 0.0
03 12:15 S 12 G 20 10.00 Fair CLR 80.6 71.6 74% 85 29.87 0.0
03 11:55 S 13 10.00 Fair CLR 80.6 71.6 74% 85 29.87 0.0
03 11:35 S 17 10.00 Fair CLR 80.6 71.6 74% 85 29.87 0.0
03 11:15 S 15 G 21 10.00 Fair CLR 80.6 71.6 74% 85 29.87 0.0
03 10:55 S 10 G 20 10.00 Fair CLR 78.8 69.8 74% 81 29.87 0.0
03 10:35 S 12 G 21 10.00 Fair CLR 78.8 71.6 79% 82 29.86 0.0
03 10:15 S 12 G 20 10.00 Fair CLR 77 69.8 79% 79 29.86 0.0
03 09:55 S 9 10.00 Fair CLR 77 69.8 79% 79 29.87 0.0
03 09:35 SE 9 10.00 Fair CLR 75.2 71.6 89% 75 29.88 0.0
03 09:15 S 7 10.00 Fair CLR 75.2 71.6 89% 75 29.89 0.0
03 08:55 S 3 10.00 Fair CLR 75.2 69.8 83% 75 29.89 0.0
03 08:35 SW 6 9.00 A Few Clouds FEW055 FEW070 FEW100 73.4 69.8 89% 29.88 0.0
03 08:15 SW 13 G 24 8.00 A Few Clouds FEW049 FEW055 FEW065 75.2 68 78% 76 29.88 0.0
03 07:55 SW 7 G 15 10.00 A Few Clouds FEW055 FEW070 FEW120 73.4 69.8 89% 29.88 0.0 0.13
03 07:35 S 12 9.00 Mostly Cloudy FEW002 SCT055 BKN100 73.4 69.8 89% 29.86 0.0
03 06:55 S 13 G 20 10.00 Partly Cloudy SCT110 77 68 74% 79 29.85 0.0
03 06:35 S 10 G 16 10.00 Mostly Cloudy FEW017 FEW030 BKN110 77 68 74% 79 29.86 0.0
03 06:15 SE 9 10.00 Mostly Cloudy FEW017 SCT037 BKN110 75.2 69.8 83% 75 29.85 0.0
03 05:55 SE 10 10.00 Mostly Cloudy FEW041 SCT070 BKN110 77 68 74% 79 29.86 0.0
03 05:35 SE 13 10.00 Mostly Cloudy BKN110 77 68 74% 79 29.86 0.0
03 05:15 SE 12 10.00 Overcast OVC110 77 69.8 79% 79 29.86 0.0
03 04:55 SE 15 10.00 Overcast FEW060 FEW080 OVC110 75.2 69.8 83% 75 29.86 0.0 0.06
03 04:35 SE 13 G 18 5.00 Rain FEW029 SCT044 BKN070 75.2 69.8 83% 75 29.86 0.0
03 04:15 S 16 G 23 8.00 Mostly Cloudy FEW024 SCT050 BKN075 77 68 74% 79 29.87 0.0
03 03:55 S 15 G 25 10.00 Mostly Cloudy FEW060 FEW075 BKN110 80.6 66.2 62% 83 29.86 0.0
03 03:35 S 18 10.00 Overcast FEW055 FEW065 OVC110 80.6 66.2 62% 83 29.85 0.0
03 03:15 S 15 10.00 Mostly Cloudy BKN110 78.8 68 70% 81 29.84 0.0
03 02:55 S 13 G 20 10.00 Fair CLR 78.8 66.2 65% 81 29.84 0.0
03 02:35 S 12 G 18 10.00 Fair CLR 78.8 66.2 65% 81 29.85 0.0
03 02:15 S 15 10.00 Fair CLR 78.8 68 70% 81 29.84 0.0
03 01:55 S 12 G 18 10.00 Fair CLR 78.8 68 70% 81 29.85 0.0
03 01:35 S 13 G 18 0.00 Fair CLR 78.8 68 70% 81 29.85 0.0
03 01:15 S 10 10.00 Fair CLR 78.8 68 70% 81 29.85 0.0
03 00:55 S 10 10.00 Fair CLR 78.8 68 70% 81 29.85 0.0
03 00:35 S 8 10.00 Fair CLR 77 69.8 79% 79 29.86 0.0
03 00:15 S 9 10.00 Fair CLR 78.8 69.8 74% 81 29.86 0.0
02 23:55 S 8 10.00 Fair CLR 78.8 69.8 74% 81 29.86 0.0
02 23:35 S 10 10.00 Fair CLR 78.8 69.8 74% 81 29.85 0.0
02 23:15 S 13 10.00 Fair CLR 80.6 69.8 70% 84 29.85 0.0
02 22:35 S 10 10.00 Fair CLR 82.4 71.6 70% 87 29.85 0.0
02 22:15 S 13 G 21 10.00 Fair CLR 82.4 71.6 70% 87 29.85 0.0
02 21:55 S 13 G 20 10.00 Fair CLR 82.4 73.4 74% 88 29.85 0.0
02 21:35 S 12 10.00 Fair CLR 82.4 73.4 74% 88 29.85 0.0
02 21:15 S 9 10.00 Fair CLR 84.2 73.4 70% 91 29.85 0.0
02 20:55 S 12 10.00 Fair CLR 84.2 73.4 70% 91 29.84 0.0
02 20:35 S 9 10.00 Fair CLR 82.4 75.2 79% 89 29.84 0.0
02 20:15 S 9 10.00 Fair CLR 84.2 77 79% 94 29.84 0.0
02 19:55 S 7 10.00 Fair CLR 84.2 77 79% 94 29.84 0.0
02 19:35 SE 6 10.00 Fair CLR 84.2 77 79% 94 29.84 0.0
02 19:15 S 6 10.00 Fair CLR 86 77 75% 97 29.83 0.0
02 18:55 S 6 10.00 Fair CLR 87.8 75.2 66% 98 29.84 0.0
02 18:35 S 6 10.00 Fair CLR 89.6 75.2 63% 100 29.84 0.0
02 18:15 S 7 10.00 Fair CLR 89.6 73.4 59% 98 29.84 0.0
02 17:55 S 6 10.00 Fair CLR 89.6 73.4 59% 98 29.84 0.0
02 17:35 Vrbl 7 10.00 Fair CLR 93.2 73.4 53% 103 29.84 0.0
02 17:15 SW 6 10.00 Fair CLR 89.6 73.4 59% 98 29.84 0.0
02 16:55 SW 8 G 16 10.00 Fair CLR 91.4 73.4 56% 100 29.84 0.0
02 16:35 S 10 10.00 Fair CLR 91.4 73.4 56% 100 29.84 0.0
02 16:15 S 8 10.00 Fair CLR 89.6 75.2 63% 100 29.85 0.0
02 15:55 S 6 10.00 Fair CLR 87.8 75.2 66% 98 29.85 0.0
02 15:35 S 9 G 16 10.00 Fair CLR 89.6 75.2 63% 100 29.86 0.0
02 15:15 S 6 G 12 10.00 Fair CLR 87.8 73.4 62% 96 29.87 0.0
02 14:55 S 6 10.00 Fair CLR 87.8 73.4 62% 96 29.88 0.0
02 14:35 S 12 10.00 Fair CLR 87.8 71.6 59% 94 29.88 0.0
02 14:15 S 10 10.00 Fair CLR 87.8 71.6 59% 94 29.88 0.0
02 13:55 S 12 G 21 10.00 Fair CLR 87.8 71.6 59% 94 29.89 0.0
02 13:35 S 9 10.00 Fair CLR 87.8 69.8 55% 93 29.9 0.0
02 13:15 S 12 10.00 Fair CLR 86 69.8 59% 91 29.9 0.0
02 12:55 S 8 10.00 Fair CLR 86 71.6 62% 92 29.9 0.0
02 12:35 SE 9 10.00 Fair CLR 84.2 69.8 62% 88 29.9 0.0
02 12:15 SE 8 10.00 Fair CLR 82.4 73.4 74% 88 29.9 0.0
02 11:55 SE 8 10.00 Fair CLR 80.6 71.6 74% 85 29.91 0.0
02 11:35 SE 13 8.00 Fair CLR 78.8 71.6 79% 82 29.91 0.0
02 11:15 SE 10 1.00 Partly Cloudy with Haze SCT110 78.8 71.6 79% 82 29.92 0.0
02 10:55 SE 7 G 15 3.00 A Few Clouds with Haze FEW110 77 71.6 83% 78 29.93 0.0
02 10:35 SE 8 10.00 Fair CLR 77 69.8 79% 79 29.93 0.0
02 10:15 SE 5 10.00 Fair CLR 78.8 69.8 74% 81 29.94 0.0
02 09:55 SE 7 10.00 Fair CLR 78.8 71.6 79% 82 29.93 0.0
02 09:35 E 8 10.00 Fair CLR 77 69.8 79% 79 29.93 0.0
02 09:15 N 5 10.00 Fair CLR 77 68 74% 79 29.94 0.0
02 08:55 SE 7 G 13 10.00 Fair CLR 77 68 74% 79 29.92 0.0
02 08:35 SE 8 G 15 10.00 Fair CLR 75.2 66.2 74% 77 29.92 0.0
02 08:15 SE 13 10.00 Fair CLR 73.4 66.2 78% 29.92 0.0
02 07:55 SE 10 G 17 10.00 Fair CLR 71.6 66.2 83% 29.92 0.0
02 07:35 SE 8 G 15 10.00 Fair CLR 71.6 66.2 83% 29.93 0.0
02 07:15 SE 10 G 18 10.00 Fair CLR 71.6 68 88% 29.92 0.0
02 06:55 E 13 10.00 Fair CLR 69.8 68 94% 29.92 0.0
02 06:35 E 12 10.00 Fair CLR 69.8 68 94% 29.92 0.0
02 06:15 E 7 G 14 10.00 A Few Clouds FEW021 FEW030 69.8 68 94% 29.92 0.0
02 05:55 SE 7 10.00 Mostly Cloudy BKN021 BKN029 69.8 66.2 88% 29.94 0.0
02 05:35 SE 9 10.00 Partly Cloudy SCT021 SCT027 69.8 68 94% 29.95 0.0
02 05:15 E 10 10.00 Fair CLR 69.8 68 94% 29.94 0.0
02 04:55 E 10 10.00 Fair CLR 71.6 68 88% 29.96 0.0
02 04:35 N 13 10.00 A Few Clouds FEW120 71.6 69.8 94% 29.97 0.0
02 04:15 E 7 10.00 Fair CLR 71.6 69.8 94% 29.94 0.0
02 03:55 E 5 10.00 Fair CLR 71.6 69.8 94% 29.94 0.0
02 03:35 NE 7 10.00 Fair CLR 73.4 69.8 89% 29.94 0.0
02 03:15 NE 9 10.00 Fair CLR 73.4 71.6 94% 29.94 0.0
02 02:55 NE 10 10.00 A Few Clouds FEW110 73.4 71.6 94% 29.94 0.0
02 02:35 N 7 G 15 10.00 A Few Clouds FEW110 73.4 69.8 89% 29.94 0.0
02 02:15 Calm 10.00 Fair CLR 75.2 69.8 83% 75 29.93 0.0
02 01:55 Calm 10.00 Fair CLR 73.4 69.8 89% 29.91 0.0
02 01:15 Vrbl 7 10.00 Fair CLR 75.2 69.8 83% 75 29.88 0.0
02 00:55 S 10 10.00 Fair CLR 75.2 71.6 89% 75 29.87 0.0
02 00:35 S 7 10.00 Fair CLR 73.4 71.6 94% 29.89 0.0
02 00:15 S 6 10.00 Fair CLR 75.2 73.4 94% 74 29.89 0.0
01 23:55 Calm 10.00 Fair CLR 75.2 73.4 94% 74 29.9 0.0
01 23:35 Calm 10.00 A Few Clouds FEW120 75.2 75.2 100% 73 29.9 0.0
01 23:15 Calm 10.00 A Few Clouds FEW120 75.2 73.4 94% 74 29.9 0.0
01 22:55 Calm 10.00 Fair CLR 77 75.2 94% 78 29.91 0.0
01 22:35 Calm 10.00 Fair CLR 75.2 75.2 100% 73 29.9 0.0
01 22:15 Calm 10.00 Fair CLR 75.2 75.2 100% 73 29.9 0.0
01 21:55 Calm 10.00 Fair CLR 77 75.2 94% 78 29.9 0.0
01 21:35 Calm 10.00 Fair CLR 78.8 75.2 89% 82 29.9 0.0
01 21:15 Calm 10.00 Fair CLR 78.8 75.2 89% 82 29.88 0.0
01 20:55 NE 5 10.00 Fair CLR 80.6 75.2 84% 86 29.87 0.0
01 20:35 Calm 10.00 Fair CLR 78.8 77 94% 83 29.86 0.0
01 20:15 Calm 10.00 Fair CLR 80.6 77 89% 87 29.87 0.0
01 19:55 SE 5 10.00 Fair CLR 82.4 77 84% 91 29.86 0.0
01 19:35 SE 5 10.00 Fair CLR 84.2 77 79% 94 29.86 0.0
01 19:15 SE 3 10.00 Fair CLR 86 77 75% 97 29.86 0.0
01 18:55 Calm 10.00 Fair CLR 87.8 75.2 66% 98 29.87 0.0
01 18:35 Calm 10.00 Fair CLR 89.6 75.2 63% 100 29.87 0.0
01 18:15 Vrbl 5 10.00 Fair CLR 89.6 73.4 59% 98 29.87 0.0
01 17:55 S 8 10.00 Fair CLR 89.6 73.4 59% 98 29.88 0.0
01 17:35 S 9 10.00 Fair CLR 89.6 71.6 55% 96 29.89 0.0
01 17:15 S 10 10.00 Fair CLR 89.6 73.4 59% 98 29.89 0.0
01 16:55 S 9 10.00 Fair CLR 89.6 73.4 59% 98 29.89 0.0
01 16:35 S 12 G 18 10.00 Fair CLR 89.6 71.6 55% 96 29.89 0.0
01 16:15 S 13 10.00 Fair CLR 89.6 71.6 55% 96 29.9 0.0
01 15:55 S 8 G 15 10.00 Fair CLR 89.6 73.4 59% 98 29.9 0.0
01 15:35 S 13 10.00 Fair CLR 89.6 71.6 55% 96 29.9 0.0
01 15:15 SE 10 10.00 Fair CLR 89.6 73.4 59% 98 29.91 0.0
01 14:55 SE 12 G 20 10.00 Fair CLR 89.6 71.6 55% 96 29.92 0.0
01 14:35 SE 8 10.00 Fair CLR 89.6 73.4 59% 98 29.92 0.0
01 14:15 SE 9 10.00 Fair CLR 89.6 73.4 59% 98 29.93 0.0
01 13:55 E 8 G 14 10.00 Fair CLR 89.6 73.4 59% 98 29.93 0.0
01 13:35 E 8 6.00 Fair with Haze CLR 87.8 73.4 62% 96 29.94 0.0
01 13:15 SE 7 G 14 10.00 Fair CLR 87.8 73.4 62% 96 29.95 0.0
01 12:55 E 12 10.00 Fair CLR 87.8 73.4 62% 96 29.95 0.0
01 12:35 E 8 10.00 Fair CLR 87.8 71.6 59% 94 29.95 0.0
Date Time (cdt) Wind (mph) Vis. (mi.) Weather Sky Cond. Air Dwpt Max. Min. Relative Humidity Wind Chill (°F) Heat Index (°F) altimeter (in) sea level (mb) 1 hr 3 hr 6 hr
6 hour
Temperature (ºF) Pressure Precipitation (in)